date,time,SUV Intensity [MED/Hr],UV Index,Daily total [MED],Since Last [MED]
25/06/2022,00:09:38,0.001,0.0,0.0,0.0
25/06/2022,00:10:39,0.000,0.0,0.0,0.0
25/06/2022,00:11:39,0.000,0.0,0.0,0.0
25/06/2022,00:12:38,0.000,0.0,0.0,0.0
25/06/2022,00:13:38,0.000,0.0,0.0,0.0
25/06/2022,00:14:39,0.000,0.0,0.0,0.0
25/06/2022,00:15:38,0.001,0.0,0.0,0.0
25/06/2022,00:16:38,0.000,0.0,0.0,0.0
25/06/2022,00:17:39,0.001,0.0,0.0,0.0
25/06/2022,00:18:39,-0.001,0.0,0.0,0.0
25/06/2022,00:19:39,-0.000,0.0,0.0,0.0
25/06/2022,00:20:40,-0.000,0.0,0.0,0.0
25/06/2022,00:21:39,-0.001,0.0,0.0,0.0
25/06/2022,00:22:38,0.000,0.0,0.0,0.0
25/06/2022,00:23:46,-0.001,0.0,0.0,0.0
25/06/2022,00:24:38,0.000,0.0,0.0,0.0
25/06/2022,00:25:47,0.000,0.0,0.0,0.0
25/06/2022,00:27:39,0.001,0.0,0.0,0.0
25/06/2022,00:28:38,0.000,0.0,0.0,0.0
25/06/2022,00:29:39,0.001,0.0,0.0,0.0
25/06/2022,00:30:39,-0.001,0.0,0.0,0.0
25/06/2022,00:31:38,-0.001,0.0,0.0,0.0
25/06/2022,00:32:39,-0.000,0.0,0.0,0.0
25/06/2022,00:33:38,-0.001,0.0,0.0,0.0
25/06/2022,00:34:38,0.000,0.0,0.0,0.0
25/06/2022,00:35:38,0.000,0.0,0.0,0.0
25/06/2022,00:36:39,-0.001,0.0,0.0,0.0
25/06/2022,00:37:39,0.000,0.0,0.0,0.0
25/06/2022,00:38:47,-0.001,0.0,0.0,0.0
25/06/2022,00:39:38,0.000,0.0,0.0,0.0
25/06/2022,00:40:38,-0.001,0.0,0.0,0.0
25/06/2022,00:41:47,-0.001,0.0,0.0,0.0
25/06/2022,00:43:39,0.000,0.0,0.0,0.0
25/06/2022,00:44:38,-0.000,0.0,0.0,0.0
25/06/2022,00:45:38,-0.001,0.0,0.0,0.0
25/06/2022,00:46:38,0.000,0.0,0.0,0.0
25/06/2022,00:47:39,0.001,0.0,0.0,0.0
25/06/2022,00:48:39,0.000,0.0,0.0,0.0
25/06/2022,00:49:38,0.000,0.0,0.0,0.0
25/06/2022,00:50:38,-0.000,0.0,0.0,0.0
25/06/2022,00:51:38,0.000,0.0,0.0,0.0
25/06/2022,00:52:39,-0.000,0.0,0.0,0.0
25/06/2022,00:53:39,0.001,0.0,0.0,0.0
25/06/2022,00:54:38,0.000,0.0,0.0,0.0
25/06/2022,00:55:38,-0.001,0.0,0.0,0.0
25/06/2022,00:56:39,-0.001,0.0,0.0,0.0
25/06/2022,00:57:47,0.000,0.0,0.0,0.0
25/06/2022,00:58:38,-0.000,0.0,0.0,0.0
25/06/2022,00:59:41,0.000,0.0,0.0,0.0
25/06/2022,01:00:39,-0.001,0.0,0.0,0.0
25/06/2022,01:01:39,0.000,0.0,0.0,0.0
25/06/2022,01:02:39,0.000,0.0,0.0,0.0
25/06/2022,01:03:38,0.001,0.0,0.0,0.0
25/06/2022,01:04:38,0.000,0.0,0.0,0.0
25/06/2022,01:05:39,0.000,0.0,0.0,0.0
25/06/2022,01:06:41,0.000,0.0,0.0,0.0
25/06/2022,01:07:38,0.000,0.0,0.0,0.0
25/06/2022,01:08:38,0.000,0.0,0.0,0.0
25/06/2022,01:09:40,0.001,0.0,0.0,0.0
25/06/2022,01:10:39,0.001,0.0,0.0,0.0
25/06/2022,01:11:39,-0.000,0.0,0.0,0.0
25/06/2022,01:12:39,0.001,0.0,0.0,0.0
25/06/2022,01:13:38,0.000,0.0,0.0,0.0
25/06/2022,01:14:39,-0.000,0.0,0.0,0.0
25/06/2022,01:15:39,0.001,0.0,0.0,0.0
25/06/2022,01:16:39,-0.001,0.0,0.0,0.0
25/06/2022,01:17:39,0.000,0.0,0.0,0.0
25/06/2022,01:18:39,0.001,0.0,0.0,0.0
25/06/2022,01:19:38,0.000,0.0,0.0,0.0
25/06/2022,01:20:38,0.000,0.0,0.0,0.0
25/06/2022,01:21:38,0.000,0.0,0.0,0.0
25/06/2022,01:22:38,0.000,0.0,0.0,0.0
25/06/2022,01:23:38,0.001,0.0,0.0,0.0
25/06/2022,01:24:38,0.000,0.0,0.0,0.0
25/06/2022,01:25:39,-0.001,0.0,0.0,0.0
25/06/2022,01:26:39,0.001,0.0,0.0,0.0
25/06/2022,01:27:38,0.000,0.0,0.0,0.0
25/06/2022,01:28:39,0.000,0.0,0.0,0.0
25/06/2022,01:29:38,0.000,0.0,0.0,0.0
25/06/2022,01:30:39,0.000,0.0,0.0,0.0
25/06/2022,01:31:47,-0.001,0.0,0.0,0.0
25/06/2022,01:32:39,0.001,0.0,0.0,0.0
25/06/2022,01:33:39,-0.001,0.0,0.0,0.0
25/06/2022,01:34:39,0.000,0.0,0.0,0.0
25/06/2022,01:35:38,-0.001,0.0,0.0,0.0
25/06/2022,01:36:38,-0.000,0.0,0.0,0.0
25/06/2022,01:37:39,0.001,0.0,0.0,0.0
25/06/2022,01:38:38,0.000,0.0,0.0,0.0
25/06/2022,01:39:39,0.000,0.0,0.0,0.0
25/06/2022,01:40:39,0.000,0.0,0.0,0.0
25/06/2022,01:41:39,0.000,0.0,0.0,0.0
25/06/2022,01:42:39,-0.000,0.0,0.0,0.0
25/06/2022,01:43:39,-0.001,0.0,0.0,0.0
25/06/2022,01:44:47,0.000,0.0,0.0,0.0
25/06/2022,01:46:39,0.000,0.0,0.0,0.0
25/06/2022,01:47:47,0.000,0.0,0.0,0.0
25/06/2022,01:48:40,0.000,0.0,0.0,0.0
25/06/2022,01:49:39,0.000,0.0,0.0,0.0
25/06/2022,01:50:47,0.000,0.0,0.0,0.0
25/06/2022,01:51:38,0.000,0.0,0.0,0.0
25/06/2022,01:52:39,-0.000,0.0,0.0,0.0
25/06/2022,01:53:39,0.000,0.0,0.0,0.0
25/06/2022,01:54:38,0.000,0.0,0.0,0.0
25/06/2022,01:55:39,0.001,0.0,0.0,0.0
25/06/2022,01:56:39,-0.001,0.0,0.0,0.0
25/06/2022,01:57:38,0.000,0.0,0.0,0.0
25/06/2022,01:58:39,-0.000,0.0,0.0,0.0
25/06/2022,01:59:39,-0.000,0.0,0.0,0.0
25/06/2022,02:00:48,-0.001,0.0,0.0,0.0
25/06/2022,02:02:39,0.001,0.0,0.0,0.0
25/06/2022,02:03:47,0.000,0.0,0.0,0.0
25/06/2022,02:04:38,0.000,0.0,0.0,0.0
25/06/2022,02:05:38,0.000,0.0,0.0,0.0
25/06/2022,02:06:40,-0.000,0.0,0.0,0.0
25/06/2022,02:07:39,0.000,0.0,0.0,0.0
25/06/2022,02:08:39,0.001,0.0,0.0,0.0
25/06/2022,02:09:39,0.000,0.0,0.0,0.0
25/06/2022,02:10:39,0.001,0.0,0.0,0.0
25/06/2022,02:11:38,0.000,0.0,0.0,0.0
25/06/2022,02:12:39,0.001,0.0,0.0,0.0
25/06/2022,02:13:39,-0.001,0.0,0.0,0.0
25/06/2022,02:14:39,0.000,0.0,0.0,0.0
25/06/2022,02:15:39,0.001,0.0,0.0,0.0
25/06/2022,02:16:47,0.001,0.0,0.0,0.0
25/06/2022,02:18:40,0.000,0.0,0.0,0.0
25/06/2022,02:19:39,0.001,0.0,0.0,0.0
25/06/2022,02:20:55,0.001,0.0,0.0,0.0
25/06/2022,02:22:39,0.000,0.0,0.0,0.0
25/06/2022,02:23:38,0.001,0.0,0.0,0.0
25/06/2022,02:24:38,-0.001,0.0,0.0,0.0
25/06/2022,02:25:37,0.001,0.0,0.0,0.0
25/06/2022,02:26:39,-0.000,0.0,0.0,0.0
25/06/2022,02:27:39,0.002,0.0,0.0,0.0
25/06/2022,02:28:39,0.000,0.0,0.0,0.0
25/06/2022,02:30:03,0.000,0.0,0.0,0.0
25/06/2022,02:31:39,0.000,0.0,0.0,0.0
25/06/2022,02:32:47,0.001,0.0,0.0,0.0
25/06/2022,02:34:40,0.000,0.0,0.0,0.0
25/06/2022,02:35:39,0.000,0.0,0.0,0.0
25/06/2022,02:36:38,0.000,0.0,0.0,0.0
25/06/2022,02:37:39,0.001,0.0,0.0,0.0
25/06/2022,02:38:39,-0.000,0.0,0.0,0.0
25/06/2022,02:39:38,0.001,0.0,0.0,0.0
25/06/2022,02:40:38,0.000,0.0,0.0,0.0
25/06/2022,02:41:39,0.001,0.0,0.0,0.0
25/06/2022,02:42:39,0.001,0.0,0.0,0.0
25/06/2022,02:43:38,0.000,0.0,0.0,0.0
25/06/2022,02:44:38,0.001,0.0,0.0,0.0
25/06/2022,02:45:39,0.001,0.0,0.0,0.0
25/06/2022,02:46:39,0.001,0.0,0.0,0.0
25/06/2022,02:47:47,0.000,0.0,0.0,0.0
25/06/2022,02:49:39,0.001,0.0,0.0,0.0
25/06/2022,02:50:39,0.001,0.0,0.0,0.0
25/06/2022,02:51:38,0.001,0.0,0.0,0.0
25/06/2022,02:52:39,0.001,0.0,0.0,0.0
25/06/2022,02:53:39,0.001,0.0,0.0,0.0
25/06/2022,02:54:39,-0.000,0.0,0.0,0.0
25/06/2022,02:55:38,0.001,0.0,0.0,0.0
25/06/2022,02:56:39,0.001,0.0,0.0,0.0
25/06/2022,02:57:38,0.000,0.0,0.0,0.0
25/06/2022,02:58:39,0.001,0.0,0.0,0.0
25/06/2022,02:59:39,0.000,0.0,0.0,0.0
25/06/2022,03:00:38,-0.000,0.0,0.0,0.0
25/06/2022,03:01:39,0.001,0.0,0.0,0.0
25/06/2022,03:02:39,0.001,0.0,0.0,0.0
25/06/2022,03:03:47,0.000,0.0,0.0,0.0
25/06/2022,03:05:39,0.001,0.0,0.0,0.0
25/06/2022,03:06:38,0.001,0.0,0.0,0.0
25/06/2022,03:07:39,0.001,0.0,0.0,0.0
25/06/2022,03:08:39,0.001,0.0,0.0,0.0
25/06/2022,03:09:39,0.001,0.0,0.0,0.0
25/06/2022,03:10:38,0.000,0.0,0.0,0.0
25/06/2022,03:11:39,0.002,0.0,0.0,0.0
25/06/2022,03:12:38,0.002,0.0,0.0,0.0
25/06/2022,03:13:47,0.001,0.0,0.0,0.0
25/06/2022,03:14:39,0.000,0.0,0.0,0.0
25/06/2022,03:15:38,0.001,0.0,0.0,0.0
25/06/2022,03:16:38,0.001,0.0,0.0,0.0
25/06/2022,03:17:39,0.001,0.0,0.0,0.0
25/06/2022,03:18:39,0.001,0.0,0.0,0.0
25/06/2022,03:19:39,-0.000,0.0,0.0,0.0
25/06/2022,03:20:39,0.001,0.0,0.0,0.0
25/06/2022,03:21:39,0.001,0.0,0.0,0.0
25/06/2022,03:22:39,0.002,0.0,0.0,0.0
25/06/2022,03:23:47,0.000,0.0,0.0,0.0
25/06/2022,03:24:38,0.000,0.0,0.0,0.0
25/06/2022,03:25:38,0.002,0.0,0.0,0.0
25/06/2022,03:26:39,0.000,0.0,0.0,0.0
25/06/2022,03:27:39,0.002,0.0,0.0,0.0
25/06/2022,03:28:39,0.001,0.0,0.0,0.0
25/06/2022,03:29:47,0.001,0.0,0.0,0.0
25/06/2022,03:30:41,0.001,0.0,0.0,0.0
25/06/2022,03:31:38,0.000,0.0,0.0,0.0
25/06/2022,03:32:39,0.001,0.0,0.0,0.0
25/06/2022,03:33:39,0.002,0.0,0.0,0.0
25/06/2022,03:34:39,0.001,0.0,0.0,0.0
25/06/2022,03:35:39,0.001,0.0,0.0,0.0
25/06/2022,03:36:38,0.001,0.0,0.0,0.0
25/06/2022,03:37:39,0.001,0.0,0.0,0.0
25/06/2022,03:38:39,0.001,0.0,0.0,0.0
25/06/2022,03:39:48,0.001,0.0,0.0,0.0
25/06/2022,03:40:39,0.001,0.0,0.0,0.0
25/06/2022,03:41:38,0.002,0.0,0.0,0.0
25/06/2022,03:42:39,0.002,0.0,0.0,0.0
25/06/2022,03:43:39,0.002,0.0,0.0,0.0
25/06/2022,03:44:38,0.002,0.0,0.0,0.0
25/06/2022,03:45:32,0.002,0.0,0.0,0.0
25/06/2022,03:46:39,0.001,0.0,0.0,0.0
25/06/2022,03:47:39,0.003,0.0,0.0,0.0
25/06/2022,03:48:39,0.001,0.0,0.0,0.0
25/06/2022,03:49:39,0.002,0.0,0.0,0.0
25/06/2022,03:50:39,0.001,0.0,0.0,0.0
25/06/2022,03:51:39,0.003,0.0,0.0,0.0
25/06/2022,03:52:39,0.003,0.0,0.0,0.0
25/06/2022,03:53:38,0.003,0.0,0.0,0.0
25/06/2022,03:54:39,0.003,0.0,0.0,0.0
25/06/2022,03:55:39,0.003,0.0,0.0,0.0
25/06/2022,03:56:39,0.003,0.0,0.0,0.0
25/06/2022,03:57:38,0.003,0.0,0.0,0.0
25/06/2022,03:58:39,0.003,0.0,0.0,0.0
25/06/2022,03:59:39,0.003,0.0,0.0,0.0
25/06/2022,04:00:39,0.005,0.0,0.0,0.0
25/06/2022,04:01:39,0.003,0.0,0.0,0.0
25/06/2022,04:02:38,0.003,0.0,0.0,0.0
25/06/2022,04:03:39,0.005,0.0,0.0,0.0
25/06/2022,04:04:39,0.005,0.0,0.0,0.0
25/06/2022,04:05:30,0.004,0.0,0.0,0.0
25/06/2022,04:06:40,0.004,0.0,0.0,0.0
25/06/2022,04:07:39,0.005,0.0,0.0,0.0
25/06/2022,04:08:39,0.005,0.0,0.0,0.0
25/06/2022,04:09:39,0.005,0.0,0.0,0.0
25/06/2022,04:10:39,0.006,0.0,0.0,0.0
25/06/2022,04:11:39,0.006,0.0,0.0,0.0
25/06/2022,04:12:38,0.006,0.0,0.0,0.0
25/06/2022,04:13:39,0.006,0.0,0.0,0.0
25/06/2022,04:14:39,0.007,0.0,0.0,0.0
25/06/2022,04:15:39,0.007,0.0,0.0,0.0
25/06/2022,04:16:47,0.007,0.0,0.001,0.001
25/06/2022,04:17:38,0.007,0.0,0.001,0.0
25/06/2022,04:18:39,0.007,0.0,0.001,0.0
25/06/2022,04:19:40,0.009,0.0,0.001,0.0
25/06/2022,04:20:39,0.007,0.0,0.001,0.0
25/06/2022,04:21:39,0.008,0.0,0.001,0.0
25/06/2022,04:22:39,0.008,0.0,0.001,0.0
25/06/2022,04:23:39,0.009,0.0,0.001,0.0
25/06/2022,04:24:39,0.009,0.0,0.002,0.001
25/06/2022,04:25:39,0.010,0.0,0.002,0.0
25/06/2022,04:26:39,0.010,0.0,0.002,0.0
25/06/2022,04:27:39,0.011,0.0,0.002,0.0
25/06/2022,04:28:39,0.011,0.0,0.002,0.0
25/06/2022,04:29:38,0.011,0.0,0.002,0.0
25/06/2022,04:30:39,0.013,0.0,0.003,0.001
25/06/2022,04:31:39,0.012,0.0,0.003,0.0
25/06/2022,04:32:39,0.012,0.0,0.003,0.0
25/06/2022,04:33:39,0.012,0.0,0.003,0.0
25/06/2022,04:34:39,0.013,0.0,0.003,0.0
25/06/2022,04:35:39,0.013,0.0,0.004,0.001
25/06/2022,04:36:47,0.013,0.0,0.004,0.0
25/06/2022,04:37:38,0.014,0.0,0.004,0.0
25/06/2022,04:38:39,0.015,0.0,0.004,0.0
25/06/2022,04:39:39,0.015,0.0,0.005,0.001
25/06/2022,04:40:39,0.015,0.0,0.005,0.0
25/06/2022,04:41:39,0.016,0.0,0.005,0.0
25/06/2022,04:42:38,0.016,0.0,0.005,0.0
25/06/2022,04:43:39,0.015,0.0,0.006,0.001
25/06/2022,04:44:39,0.017,0.0,0.006,0.0
25/06/2022,04:45:39,0.017,0.0,0.006,0.0
25/06/2022,04:46:39,0.016,0.0,0.007,0.001
25/06/2022,04:47:39,0.016,0.0,0.007,0.0
25/06/2022,04:48:39,0.016,0.0,0.007,0.0
25/06/2022,04:49:48,0.017,0.0,0.007,0.0
25/06/2022,04:50:47,0.017,0.0,0.008,0.001
25/06/2022,04:51:38,0.018,0.0,0.008,0.0
25/06/2022,04:52:39,0.020,0.0,0.008,0.0
25/06/2022,04:53:39,0.020,0.0,0.009,0.001
25/06/2022,04:54:39,0.021,0.0,0.009,0.0
25/06/2022,04:55:39,0.023,0.0,0.009,0.0
25/06/2022,04:56:39,0.025,0.0,0.01,0.001
25/06/2022,04:57:39,0.026,0.0,0.01,0.0
25/06/2022,04:58:39,0.026,0.0,0.011,0.001
25/06/2022,04:59:47,0.028,0.0,0.011,0.0
25/06/2022,05:00:39,0.029,0.0,0.012,0.001
25/06/2022,05:01:39,0.029,0.0,0.012,0.0
25/06/2022,05:02:47,0.032,0.0,0.013,0.001
25/06/2022,05:03:39,0.032,0.0,0.013,0.0
25/06/2022,05:04:39,0.032,0.0,0.014,0.001
25/06/2022,05:05:38,0.034,0.0,0.014,0.0
25/06/2022,05:06:39,0.034,0.0,0.015,0.001
25/06/2022,05:07:39,0.035,0.0,0.015,0.0
25/06/2022,05:08:39,0.036,0.0,0.016,0.001
25/06/2022,05:09:39,0.038,0.0,0.016,0.0
25/06/2022,05:10:54,0.039,0.0,0.017,0.001
25/06/2022,05:12:40,0.040,0.0,0.018,0.001
25/06/2022,05:13:39,0.041,0.0,0.019,0.001
25/06/2022,05:14:38,0.042,0.0,0.02,0.001
25/06/2022,05:15:47,0.044,0.0,0.021,0.001
25/06/2022,05:16:39,0.045,0.0,0.021,0.0
25/06/2022,05:17:38,0.046,0.0,0.022,0.001
25/06/2022,05:18:39,0.048,0.0,0.023,0.001
25/06/2022,05:19:39,0.048,0.0,0.024,0.001
25/06/2022,05:20:39,0.049,0.0,0.024,0.0
25/06/2022,05:21:39,0.050,0.0,0.025,0.001
25/06/2022,05:22:39,0.052,0.0,0.026,0.001
25/06/2022,05:23:39,0.053,0.0,0.027,0.001
25/06/2022,05:24:39,0.055,0.0,0.028,0.001
25/06/2022,05:25:48,0.055,0.0,0.029,0.001
25/06/2022,05:27:39,0.058,0.0,0.031,0.002
25/06/2022,05:28:39,0.059,0.0,0.032,0.001
25/06/2022,05:29:39,0.061,0.0,0.033,0.001
25/06/2022,05:30:39,0.063,0.0,0.034,0.001
25/06/2022,05:31:39,0.064,0.0,0.035,0.001
25/06/2022,05:32:39,0.066,0.0,0.036,0.001
25/06/2022,05:33:41,0.068,0.0,0.037,0.001
25/06/2022,05:34:38,0.070,0.0,0.038,0.001
25/06/2022,05:35:39,0.071,0.0,0.039,0.001
25/06/2022,05:36:39,0.071,0.0,0.04,0.001
25/06/2022,05:37:39,0.075,0.0,0.042,0.002
25/06/2022,05:38:39,0.076,0.0,0.043,0.001
25/06/2022,05:39:39,0.078,0.0,0.044,0.001
25/06/2022,05:40:39,0.080,0.0,0.046,0.002
25/06/2022,05:41:47,0.082,0.0,0.047,0.001
25/06/2022,05:42:38,0.083,0.0,0.048,0.001
25/06/2022,05:43:39,0.086,0.0,0.05,0.002
25/06/2022,05:44:47,0.087,0.0,0.051,0.001
25/06/2022,05:45:39,0.089,0.0,0.053,0.002
25/06/2022,05:46:39,0.091,0.0,0.054,0.001
25/06/2022,05:47:39,0.093,0.0,0.056,0.002
25/06/2022,05:48:39,0.095,0.0,0.057,0.001
25/06/2022,05:49:39,0.097,0.0,0.059,0.002
25/06/2022,05:50:39,0.098,0.0,0.06,0.001
25/06/2022,05:51:39,0.101,0.0,0.062,0.002
25/06/2022,05:52:39,0.103,0.0,0.064,0.002
25/06/2022,05:53:39,0.106,0.0,0.066,0.002
25/06/2022,05:54:47,0.108,0.0,0.068,0.002
25/06/2022,05:55:38,0.110,0.0,0.069,0.001
25/06/2022,05:56:40,0.112,0.0,0.071,0.002
25/06/2022,05:57:48,0.116,0.0,0.073,0.002
25/06/2022,05:59:40,0.120,0.0,0.077,0.004
25/06/2022,06:00:39,0.122,0.0,0.079,0.002
25/06/2022,06:01:39,0.124,0.0,0.081,0.002
25/06/2022,06:02:39,0.126,0.0,0.083,0.002
25/06/2022,06:03:39,0.130,0.0,0.085,0.002
25/06/2022,06:04:47,0.132,0.0,0.087,0.002
25/06/2022,06:05:39,0.135,0.0,0.089,0.002
25/06/2022,06:06:39,0.138,0.0,0.092,0.003
25/06/2022,06:07:47,0.141,0.0,0.094,0.002
25/06/2022,06:08:39,0.142,0.0,0.096,0.002
25/06/2022,06:09:39,0.145,0.0,0.099,0.003
25/06/2022,06:10:47,0.147,0.0,0.102,0.003
25/06/2022,06:11:39,0.150,0.0,0.104,0.002
25/06/2022,06:12:39,0.153,0.0,0.106,0.002
25/06/2022,06:13:39,0.155,0.0,0.109,0.003
25/06/2022,06:14:39,0.158,0.0,0.111,0.002
25/06/2022,06:15:56,0.158,0.0,0.115,0.004
25/06/2022,06:17:48,0.169,0.0,0.12,0.005
25/06/2022,06:18:39,0.171,0.0,0.122,0.002
25/06/2022,06:19:39,0.172,0.0,0.125,0.003
25/06/2022,06:20:47,0.177,0.0,0.128,0.003
25/06/2022,06:21:39,0.179,0.0,0.131,0.003
25/06/2022,06:22:39,0.185,0.0,0.134,0.003
25/06/2022,06:23:47,0.186,0.0,0.138,0.004
25/06/2022,06:24:39,0.193,0.0,0.14,0.002
25/06/2022,06:25:39,0.191,0.0,0.143,0.003
25/06/2022,06:26:40,0.187,0.0,0.147,0.004
25/06/2022,06:27:39,0.185,0.0,0.15,0.003
25/06/2022,06:28:39,0.186,0.0,0.153,0.003
25/06/2022,06:29:39,0.209,0.0,0.156,0.003
25/06/2022,06:30:39,0.215,0.0,0.16,0.004
25/06/2022,06:31:39,0.219,1.0,0.163,0.003
25/06/2022,06:32:39,0.224,1.0,0.167,0.004
25/06/2022,06:33:47,0.229,1.0,0.171,0.004
25/06/2022,06:34:39,0.233,1.0,0.175,0.004
25/06/2022,06:35:39,0.236,1.0,0.178,0.003
25/06/2022,06:36:48,0.210,0.0,0.183,0.005
25/06/2022,06:37:39,0.204,0.0,0.186,0.003
25/06/2022,06:38:39,0.199,0.0,0.189,0.003
25/06/2022,06:39:39,0.202,0.0,0.193,0.004
25/06/2022,06:40:39,0.207,0.0,0.196,0.003
25/06/2022,06:41:39,0.212,0.0,0.2,0.004
25/06/2022,06:42:47,0.218,0.0,0.204,0.004
25/06/2022,06:43:39,0.220,1.0,0.207,0.003
25/06/2022,06:44:39,0.228,1.0,0.21,0.003
25/06/2022,06:45:39,0.233,1.0,0.214,0.004
25/06/2022,06:46:39,0.251,1.0,0.218,0.004
25/06/2022,06:47:39,0.260,1.0,0.222,0.004
25/06/2022,06:48:39,0.273,1.0,0.227,0.005
25/06/2022,06:49:40,0.257,1.0,0.231,0.004
25/06/2022,06:50:39,0.259,1.0,0.236,0.005
25/06/2022,06:51:39,0.265,1.0,0.24,0.004
25/06/2022,06:52:47,0.289,1.0,0.245,0.005
25/06/2022,06:53:39,0.299,1.0,0.25,0.005
25/06/2022,06:54:40,0.320,1.0,0.255,0.005
25/06/2022,06:55:48,0.330,1.0,0.261,0.006
25/06/2022,06:56:39,0.309,1.0,0.265,0.004
25/06/2022,06:57:39,0.302,1.0,0.27,0.005
25/06/2022,06:58:39,0.303,1.0,0.275,0.005
25/06/2022,06:59:39,0.326,1.0,0.28,0.005
25/06/2022,07:00:39,0.361,1.0,0.286,0.006
25/06/2022,07:01:39,0.364,1.0,0.292,0.006
25/06/2022,07:02:39,0.366,1.0,0.298,0.006
25/06/2022,07:03:40,0.359,1.0,0.304,0.006
25/06/2022,07:04:39,0.362,1.0,0.309,0.005
25/06/2022,07:05:47,0.390,1.0,0.317,0.008
25/06/2022,07:06:39,0.399,1.0,0.322,0.005
25/06/2022,07:07:39,0.407,1.0,0.329,0.007
25/06/2022,07:08:39,0.418,1.0,0.336,0.007
25/06/2022,07:09:39,0.424,1.0,0.343,0.007
25/06/2022,07:10:40,0.349,1.0,0.349,0.006
25/06/2022,07:11:47,0.373,1.0,0.356,0.007
25/06/2022,07:12:39,0.349,1.0,0.361,0.005
25/06/2022,07:13:39,0.346,1.0,0.367,0.006
25/06/2022,07:14:39,0.367,1.0,0.373,0.006
25/06/2022,07:15:40,0.351,1.0,0.379,0.006
25/06/2022,07:16:39,0.374,1.0,0.385,0.006
25/06/2022,07:17:39,0.457,1.0,0.392,0.007
25/06/2022,07:18:39,0.466,1.0,0.399,0.007
25/06/2022,07:19:40,0.475,1.0,0.406,0.007
25/06/2022,07:20:39,0.415,1.0,0.414,0.008
25/06/2022,07:21:48,0.477,1.0,0.422,0.008
25/06/2022,07:22:39,0.490,1.0,0.429,0.007
25/06/2022,07:23:39,0.455,1.0,0.436,0.007
25/06/2022,07:24:47,0.508,1.0,0.445,0.009
25/06/2022,07:25:39,0.514,1.0,0.452,0.007
25/06/2022,07:26:39,0.497,1.0,0.461,0.009
25/06/2022,07:27:40,0.495,1.0,0.469,0.008
25/06/2022,07:28:40,0.535,1.0,0.478,0.009
25/06/2022,07:29:39,0.534,1.0,0.486,0.008
25/06/2022,07:30:39,0.461,1.0,0.494,0.008
25/06/2022,07:31:39,0.393,1.0,0.501,0.007
25/06/2022,07:32:40,0.381,1.0,0.508,0.007
25/06/2022,07:33:39,0.398,1.0,0.514,0.006
25/06/2022,07:34:47,0.560,1.0,0.523,0.009
25/06/2022,07:35:39,0.564,1.0,0.53,0.007
25/06/2022,07:36:39,0.518,1.0,0.539,0.009
25/06/2022,07:37:40,0.535,1.0,0.548,0.009
25/06/2022,07:38:39,0.591,1.0,0.557,0.009
25/06/2022,07:39:39,0.612,1.0,0.567,0.01
25/06/2022,07:40:39,0.630,1.0,0.577,0.01
25/06/2022,07:41:39,0.538,1.0,0.587,0.01
25/06/2022,07:42:39,0.639,1.0,0.597,0.01
25/06/2022,07:43:39,0.651,1.0,0.607,0.01
25/06/2022,07:44:40,0.660,2.0,0.618,0.011
25/06/2022,07:45:39,0.661,2.0,0.629,0.011
25/06/2022,07:46:39,0.469,1.0,0.638,0.009
25/06/2022,07:47:39,0.625,1.0,0.648,0.01
25/06/2022,07:48:40,0.588,1.0,0.657,0.009
25/06/2022,07:49:39,0.650,1.0,0.667,0.01
25/06/2022,07:50:48,0.665,2.0,0.68,0.013
25/06/2022,07:51:39,0.489,1.0,0.687,0.007
25/06/2022,07:52:39,0.498,1.0,0.695,0.008
25/06/2022,07:53:47,0.722,2.0,0.707,0.012
25/06/2022,07:54:39,0.736,2.0,0.718,0.011
25/06/2022,07:55:39,0.517,1.0,0.729,0.011
25/06/2022,07:56:40,0.525,1.0,0.737,0.008
25/06/2022,07:57:39,0.755,2.0,0.748,0.011
25/06/2022,07:58:39,0.685,2.0,0.76,0.012
25/06/2022,07:59:39,0.689,2.0,0.772,0.012
25/06/2022,08:00:39,0.516,1.0,0.782,0.01
25/06/2022,08:01:39,0.587,1.0,0.791,0.009
25/06/2022,08:02:39,0.637,1.0,0.802,0.011
25/06/2022,08:03:40,0.470,1.0,0.81,0.008
25/06/2022,08:04:41,0.587,1.0,0.819,0.009
25/06/2022,08:05:40,0.467,1.0,0.827,0.008
25/06/2022,08:06:48,0.502,1.0,0.836,0.009
25/06/2022,08:07:40,0.741,2.0,0.846,0.01
25/06/2022,08:08:40,0.503,1.0,0.857,0.011
25/06/2022,08:09:40,0.506,1.0,0.865,0.008
25/06/2022,08:10:41,0.508,1.0,0.874,0.009
25/06/2022,08:11:39,0.534,1.0,0.882,0.008
25/06/2022,08:12:39,0.592,1.0,0.893,0.011
25/06/2022,08:13:39,0.589,1.0,0.905,0.012
25/06/2022,08:14:40,0.839,2.0,0.916,0.011
25/06/2022,08:15:40,0.512,1.0,0.926,0.01
25/06/2022,08:16:39,0.499,1.0,0.934,0.008
25/06/2022,08:17:39,0.525,1.0,0.943,0.009
25/06/2022,08:18:39,0.556,1.0,0.952,0.009
25/06/2022,08:19:39,0.862,2.0,0.964,0.012
25/06/2022,08:20:39,0.521,1.0,0.974,0.01
25/06/2022,08:21:40,0.492,1.0,0.982,0.008
25/06/2022,08:22:48,0.552,1.0,0.992,0.01
25/06/2022,08:23:39,0.600,1.0,1.001,0.009
25/06/2022,08:24:40,0.611,1.0,1.012,0.011
25/06/2022,08:25:47,0.987,2.0,1.025,0.013
25/06/2022,08:26:39,0.984,2.0,1.039,0.014
25/06/2022,08:27:39,1.016,2.0,1.053,0.014
25/06/2022,08:28:39,1.036,2.0,1.071,0.018
25/06/2022,08:29:39,1.067,2.0,1.088,0.017
25/06/2022,08:30:39,1.083,2.0,1.105,0.017
25/06/2022,08:31:40,1.059,2.0,1.122,0.017
25/06/2022,08:32:39,0.684,2.0,1.135,0.013
25/06/2022,08:33:39,0.655,2.0,1.147,0.012
25/06/2022,08:34:39,0.979,2.0,1.159,0.012
25/06/2022,08:35:40,0.645,1.0,1.174,0.015
25/06/2022,08:36:39,0.604,1.0,1.184,0.01
25/06/2022,08:37:39,0.553,1.0,1.194,0.01
25/06/2022,08:38:48,0.559,1.0,1.204,0.01
25/06/2022,08:39:39,0.593,1.0,1.212,0.008
25/06/2022,08:40:40,0.604,1.0,1.223,0.011
25/06/2022,08:41:39,0.577,1.0,1.233,0.01
25/06/2022,08:42:40,0.564,1.0,1.242,0.009
25/06/2022,08:43:40,0.578,1.0,1.252,0.01
25/06/2022,08:44:39,0.610,1.0,1.261,0.009
25/06/2022,08:45:39,0.651,1.0,1.272,0.011
25/06/2022,08:46:39,1.052,2.0,1.286,0.014
25/06/2022,08:47:39,0.634,1.0,1.298,0.012
25/06/2022,08:48:39,0.629,1.0,1.309,0.011
25/06/2022,08:49:42,0.671,2.0,1.321,0.012
25/06/2022,08:50:39,0.682,2.0,1.332,0.011
25/06/2022,08:51:40,1.045,2.0,1.344,0.012
25/06/2022,08:52:39,1.219,3.0,1.364,0.02
25/06/2022,08:53:39,1.200,3.0,1.384,0.02
25/06/2022,08:54:40,1.223,3.0,1.4,0.016
25/06/2022,08:55:39,1.228,3.0,1.42,0.02
25/06/2022,08:56:39,1.249,3.0,1.441,0.021
25/06/2022,08:57:48,1.238,3.0,1.465,0.024
25/06/2022,08:58:39,1.216,3.0,1.482,0.017
25/06/2022,08:59:40,1.296,3.0,1.503,0.021
25/06/2022,09:00:39,1.306,3.0,1.524,0.021
25/06/2022,09:01:39,1.283,3.0,1.546,0.022
25/06/2022,09:02:39,1.236,3.0,1.567,0.021
25/06/2022,09:03:39,1.261,3.0,1.588,0.021
25/06/2022,09:04:39,1.245,3.0,1.608,0.02
25/06/2022,09:05:39,1.346,3.0,1.631,0.023
25/06/2022,09:06:40,1.301,3.0,1.653,0.022
25/06/2022,09:07:40,1.348,3.0,1.675,0.022
25/06/2022,09:08:41,1.343,3.0,1.697,0.022
25/06/2022,09:09:39,1.312,3.0,1.719,0.022
25/06/2022,09:10:39,1.325,3.0,1.74,0.021
25/06/2022,09:11:39,1.414,3.0,1.763,0.023
25/06/2022,09:12:48,1.412,3.0,1.79,0.027
25/06/2022,09:13:39,1.411,3.0,1.811,0.021
25/06/2022,09:14:39,1.393,3.0,1.833,0.022
25/06/2022,09:15:39,1.432,3.0,1.857,0.024
25/06/2022,09:16:39,1.471,3.0,1.882,0.025
25/06/2022,09:17:40,1.492,3.0,1.906,0.024
25/06/2022,09:18:47,1.505,3.0,1.935,0.029
25/06/2022,09:19:39,1.489,3.0,1.955,0.02
25/06/2022,09:20:39,1.495,3.0,1.98,0.025
25/06/2022,09:21:48,1.500,3.0,2.005,0.025
25/06/2022,09:22:39,1.495,3.0,2.025,0.02
25/06/2022,09:23:39,1.354,3.0,2.047,0.022
25/06/2022,09:24:40,1.495,3.0,2.072,0.025
25/06/2022,09:25:48,1.524,4.0,2.1,0.028
25/06/2022,09:26:39,1.522,4.0,2.121,0.021
25/06/2022,09:27:39,1.535,4.0,2.147,0.026
25/06/2022,09:28:48,1.549,4.0,2.177,0.03
25/06/2022,09:29:39,1.536,4.0,2.198,0.021
25/06/2022,09:30:40,1.537,4.0,2.225,0.027
25/06/2022,09:31:39,1.577,4.0,2.251,0.026
25/06/2022,09:32:39,1.567,4.0,2.277,0.026
25/06/2022,09:33:40,1.560,4.0,2.303,0.026
25/06/2022,09:34:40,1.603,4.0,2.328,0.025
25/06/2022,09:35:39,1.586,4.0,2.354,0.026
25/06/2022,09:36:39,1.594,4.0,2.381,0.027
25/06/2022,09:37:41,1.571,4.0,2.408,0.027
25/06/2022,09:38:40,1.525,4.0,2.432,0.024
25/06/2022,09:39:39,1.399,3.0,2.457,0.025
25/06/2022,09:40:40,1.325,3.0,2.479,0.022
25/06/2022,09:41:40,1.484,3.0,2.502,0.023
25/06/2022,09:42:40,0.955,2.0,2.518,0.016
25/06/2022,09:43:48,1.661,4.0,2.547,0.029
25/06/2022,09:44:39,1.673,4.0,2.57,0.023
25/06/2022,09:45:40,1.716,4.0,2.599,0.029
25/06/2022,09:46:39,1.737,4.0,2.627,0.028
25/06/2022,09:47:40,1.740,4.0,2.657,0.03
25/06/2022,09:48:39,1.696,4.0,2.686,0.029
25/06/2022,09:49:39,1.715,4.0,2.714,0.028
25/06/2022,09:50:40,1.033,2.0,2.736,0.022
25/06/2022,09:51:39,1.587,4.0,2.76,0.024
25/06/2022,09:52:41,1.087,3.0,2.786,0.026
25/06/2022,09:53:40,1.003,2.0,2.803,0.017
25/06/2022,09:54:40,1.003,2.0,2.82,0.017
25/06/2022,09:55:47,1.548,4.0,2.842,0.022
25/06/2022,09:56:39,1.400,3.0,2.865,0.023
25/06/2022,09:57:39,1.798,4.0,2.89,0.025
25/06/2022,09:58:40,1.847,4.0,2.921,0.031
25/06/2022,09:59:39,1.855,4.0,2.952,0.031
25/06/2022,10:00:39,1.826,4.0,2.974,0.022
25/06/2022,10:01:39,1.022,2.0,2.996,0.022
25/06/2022,10:02:49,0.987,2.0,3.02,0.024
25/06/2022,10:03:39,0.942,2.0,3.033,0.013
25/06/2022,10:04:40,1.644,4.0,3.055,0.022
25/06/2022,10:05:40,1.612,4.0,3.077,0.022
25/06/2022,10:06:40,1.097,3.0,3.101,0.024
25/06/2022,10:07:40,1.447,3.0,3.12,0.019
25/06/2022,10:08:40,1.133,3.0,3.147,0.027
25/06/2022,10:09:39,1.776,4.0,3.167,0.02
25/06/2022,10:10:39,1.031,2.0,3.185,0.018
25/06/2022,10:11:40,0.815,2.0,3.202,0.017
25/06/2022,10:12:40,1.402,3.0,3.218,0.016
25/06/2022,10:13:39,0.851,2.0,3.233,0.015
25/06/2022,10:14:40,0.890,2.0,3.248,0.015
25/06/2022,10:15:39,0.874,2.0,3.263,0.015
25/06/2022,10:16:39,0.941,2.0,3.278,0.015